Time,TemperatureF,DewpointF,PressureIn,WindDirection,WindDirectionDegrees,WindSpeedMPH,WindSpeedGustMPH,Humidity,HourlyPrecipIn,Conditions,Clouds,dailyrainin,SolarRadiationWatts/m^2,SoftwareType,DateUTC
2013-04-20 00:02:00,47.0,38.0,-100.00,West,263,7.0,15.0,72,0.00,,,0.19,38.000000,,2013-04-20 00:02:00,
2013-04-20 00:12:00,47.0,38.0,-100.00,West,263,7.0,15.0,72,0.00,,,0.19,38.000000,,2013-04-20 00:12:00,
2013-04-20 00:42:00,47.0,38.0,-100.00,WSW,252,6.0,12.0,71,0.00,,,0.19,17.000000,,2013-04-20 00:42:00,
2013-04-20 00:52:00,47.0,38.0,-100.00,WSW,252,6.0,12.0,71,0.00,,,0.19,17.000000,,2013-04-20 00:52:00,
2013-04-20 01:02:00,47.0,38.0,-100.00,WSW,252,6.0,12.0,71,0.00,,,0.19,17.000000,,2013-04-20 01:02:00,
2013-04-20 01:11:00,47.0,38.0,-100.00,WSW,252,6.0,12.0,71,0.00,,,0.19,17.000000,,2013-04-20 01:11:00,
2013-04-20 01:42:00,47.0,37.0,-100.00,WSW,256,6.0,13.0,69,0.00,,,0.19,0.000000,,2013-04-20 01:42:00,
2013-04-20 01:52:00,47.0,37.0,-100.00,WSW,256,6.0,13.0,69,0.00,,,0.19,0.000000,,2013-04-20 01:52:00,
2013-04-20 02:02:00,47.0,37.0,-100.00,WSW,256,6.0,13.0,69,0.00,,,0.19,0.000000,,2013-04-20 02:02:00,
2013-04-20 02:11:00,47.0,37.0,-100.00,WSW,256,6.0,13.0,69,0.00,,,0.19,0.000000,,2013-04-20 02:11:00,
2013-04-20 02:42:00,46.0,34.0,-100.00,West,279,8.0,13.0,62,0.00,,,0.19,0.000000,,2013-04-20 02:42:00,
2013-04-20 02:52:00,46.0,34.0,-100.00,West,279,8.0,13.0,62,0.00,,,0.19,0.000000,,2013-04-20 02:52:00,
2013-04-20 03:01:00,46.0,34.0,-100.00,West,279,8.0,13.0,62,0.00,,,0.19,0.000000,,2013-04-20 03:01:00,
2013-04-20 03:11:00,46.0,34.0,-100.00,West,279,8.0,13.0,62,0.00,,,0.19,0.000000,,2013-04-20 03:11:00,
2013-04-20 03:43:00,45.0,29.0,-100.00,West,270,7.0,18.0,53,0.00,,,0.19,0.000000,,2013-04-20 03:43:00,
2013-04-20 03:53:00,45.0,29.0,-100.00,West,270,7.0,18.0,53,0.00,,,0.19,0.000000,,2013-04-20 03:53:00,
2013-04-20 04:03:00,45.0,29.0,-100.00,West,270,7.0,18.0,53,0.00,,,0.19,0.000000,,2013-04-20 04:03:00,
2013-04-20 04:12:00,45.0,29.0,-100.00,West,270,7.0,18.0,53,0.00,,,0.19,0.000000,,2013-04-20 04:12:00,
2013-04-20 04:43:00,45.0,29.0,-100.00,WNW,282,7.0,14.0,54,0.00,,,0.19,0.000000,,2013-04-20 04:43:00,
2013-04-20 04:53:00,45.0,29.0,-100.00,WNW,282,7.0,14.0,54,0.00,,,0.19,0.000000,,2013-04-20 04:53:00,
2013-04-20 05:02:00,45.0,29.0,-100.00,WNW,282,7.0,14.0,54,0.00,,,0.19,0.000000,,2013-04-20 05:02:00,
2013-04-20 05:12:00,45.0,29.0,-100.00,WNW,282,7.0,14.0,54,0.00,,,0.19,0.000000,,2013-04-20 05:12:00,
2013-04-20 05:43:00,44.0,28.0,-100.00,West,274,9.0,18.0,52,0.00,,,0.19,0.000000,,2013-04-20 05:43:00,
2013-04-20 05:52:00,44.0,28.0,-100.00,West,274,9.0,18.0,52,0.00,,,0.19,0.000000,,2013-04-20 05:52:00,
2013-04-20 06:02:00,44.0,28.0,-100.00,West,274,9.0,18.0,52,0.00,,,0.19,0.000000,,2013-04-20 06:02:00,
2013-04-20 06:12:00,44.0,28.0,-100.00,West,274,9.0,18.0,52,0.00,,,0.19,0.000000,,2013-04-20 06:12:00,
2013-04-20 06:42:00,42.0,28.0,-100.00,West,267,9.0,21.0,58,0.00,,,0.19,0.000000,,2013-04-20 06:42:00,
2013-04-20 06:52:00,42.0,28.0,-100.00,West,267,9.0,21.0,58,0.00,,,0.19,0.000000,,2013-04-20 06:52:00,
2013-04-20 07:02:00,42.0,28.0,-100.00,West,267,9.0,21.0,58,0.00,,,0.19,0.000000,,2013-04-20 07:02:00,
2013-04-20 07:11:00,42.0,28.0,-100.00,West,267,9.0,21.0,58,0.00,,,0.19,0.000000,,2013-04-20 07:11:00,
2013-04-20 07:42:00,41.0,25.0,-100.00,West,271,6.0,17.0,53,0.00,,,0.19,0.000000,,2013-04-20 07:42:00,
2013-04-20 07:52:00,41.0,25.0,-100.00,West,271,6.0,17.0,53,0.00,,,0.19,0.000000,,2013-04-20 07:52:00,
2013-04-20 08:02:00,41.0,25.0,-100.00,West,271,6.0,17.0,53,0.00,,,0.19,0.000000,,2013-04-20 08:02:00,
2013-04-20 08:11:00,41.0,25.0,-100.00,West,271,6.0,17.0,53,0.00,,,0.19,0.000000,,2013-04-20 08:11:00,
2013-04-20 08:42:00,40.0,24.0,-100.00,West,263,6.0,14.0,52,0.00,,,0.19,0.000000,,2013-04-20 08:42:00,
2013-04-20 08:52:00,40.0,24.0,-100.00,West,263,6.0,14.0,52,0.00,,,0.19,0.000000,,2013-04-20 08:52:00,
2013-04-20 09:02:00,40.0,24.0,-100.00,West,263,6.0,14.0,52,0.00,,,0.19,0.000000,,2013-04-20 09:02:00,
2013-04-20 09:12:00,40.0,24.0,-100.00,West,263,6.0,14.0,52,0.00,,,0.19,0.000000,,2013-04-20 09:12:00,
2013-04-20 09:43:00,39.0,23.0,-100.00,WSW,254,6.0,14.0,53,0.00,,,0.19,0.000000,,2013-04-20 09:43:00,
2013-04-20 09:53:00,39.0,23.0,-100.00,WSW,254,6.0,14.0,53,0.00,,,0.19,0.000000,,2013-04-20 09:53:00,
2013-04-20 10:03:00,39.0,23.0,-100.00,WSW,254,6.0,14.0,53,0.00,,,0.19,0.000000,,2013-04-20 10:03:00,
2013-04-20 10:13:00,39.0,23.0,-100.00,WSW,254,6.0,14.0,53,0.00,,,0.19,0.000000,,2013-04-20 10:13:00,
2013-04-20 10:42:00,39.0,25.0,-100.00,West,259,5.0,11.0,56,0.00,,,0.19,0.000000,,2013-04-20 10:42:00,
2013-04-20 10:53:00,39.0,25.0,-100.00,West,259,5.0,11.0,56,0.00,,,0.19,0.000000,,2013-04-20 10:53:00,
2013-04-20 11:02:00,39.0,25.0,-100.00,West,259,5.0,11.0,56,0.00,,,0.19,0.000000,,2013-04-20 11:02:00,
2013-04-20 11:12:00,39.0,25.0,-100.00,West,259,5.0,11.0,56,0.00,,,0.19,0.000000,,2013-04-20 11:12:00,
2013-04-20 11:42:00,38.0,25.0,-100.00,WSW,252,6.0,10.0,60,0.00,,,0.19,10.000000,,2013-04-20 11:42:00,
2013-04-20 11:53:00,38.0,25.0,-100.00,WSW,252,6.0,10.0,60,0.00,,,0.19,10.000000,,2013-04-20 11:53:00,
2013-04-20 12:02:00,38.0,25.0,-100.00,WSW,252,6.0,10.0,60,0.00,,,0.19,10.000000,,2013-04-20 12:02:00,
2013-04-20 12:11:00,38.0,25.0,-100.00,WSW,252,6.0,10.0,60,0.00,,,0.19,10.000000,,2013-04-20 12:11:00,
2013-04-20 12:42:00,41.0,28.0,-100.00,West,268,8.0,15.0,59,0.00,,,0.19,154.000000,,2013-04-20 12:42:00,
2013-04-20 12:52:00,41.0,28.0,-100.00,West,268,8.0,15.0,59,0.00,,,0.19,154.000000,,2013-04-20 12:52:00,
2013-04-20 13:02:00,41.0,28.0,-100.00,West,268,8.0,15.0,59,0.00,,,0.19,154.000000,,2013-04-20 13:02:00,
2013-04-20 13:11:00,41.0,28.0,-100.00,West,268,8.0,15.0,59,0.00,,,0.19,154.000000,,2013-04-20 13:11:00,
2013-04-20 13:42:00,42.0,28.0,-100.00,West,273,8.0,15.0,58,0.00,,,0.19,198.000000,,2013-04-20 13:42:00,
2013-04-20 13:52:00,42.0,28.0,-100.00,West,273,8.0,15.0,58,0.00,,,0.19,198.000000,,2013-04-20 13:52:00,
2013-04-20 14:02:00,42.0,28.0,-100.00,West,273,8.0,15.0,58,0.00,,,0.19,198.000000,,2013-04-20 14:02:00,
2013-04-20 14:11:00,42.0,28.0,-100.00,West,273,8.0,15.0,58,0.00,,,0.19,198.000000,,2013-04-20 14:11:00,
2013-04-20 14:32:00,45.0,27.0,-100.00,West,262,9.0,16.0,50,0.00,,,0.19,343.000000,,2013-04-20 14:32:00,
2013-04-20 14:42:00,45.0,27.0,-100.00,West,262,9.0,16.0,50,0.00,,,0.19,343.000000,,2013-04-20 14:42:00,
2013-04-20 14:52:00,45.0,27.0,-100.00,West,262,9.0,16.0,50,0.00,,,0.19,343.000000,,2013-04-20 14:52:00,
2013-04-20 15:02:00,45.0,27.0,-100.00,West,262,9.0,16.0,50,0.00,,,0.19,343.000000,,2013-04-20 15:02:00,
2013-04-20 15:12:00,45.0,27.0,-100.00,West,262,9.0,16.0,50,0.00,,,0.19,343.000000,,2013-04-20 15:12:00,
2013-04-20 15:43:00,47.0,27.0,-100.00,West,275,12.0,22.0,45,0.00,,,0.19,540.000000,,2013-04-20 15:43:00,
2013-04-20 15:53:00,47.0,27.0,-100.00,West,275,12.0,22.0,45,0.00,,,0.19,540.000000,,2013-04-20 15:53:00,
2013-04-20 16:03:00,47.0,27.0,-100.00,West,275,12.0,22.0,45,0.00,,,0.19,540.000000,,2013-04-20 16:03:00,
2013-04-20 16:12:00,47.0,27.0,-100.00,West,275,12.0,22.0,45,0.00,,,0.19,540.000000,,2013-04-20 16:12:00,
2013-04-20 16:42:00,48.0,25.0,-100.00,West,276,9.0,20.0,40,0.00,,,0.18,638.000000,,2013-04-20 16:42:00,
2013-04-20 16:53:00,48.0,25.0,-100.00,West,276,9.0,20.0,40,0.00,,,0.18,638.000000,,2013-04-20 16:53:00,
2013-04-20 17:02:00,48.0,25.0,-100.00,West,276,9.0,20.0,40,0.00,,,0.18,638.000000,,2013-04-20 17:02:00,
2013-04-20 17:12:00,48.0,25.0,-100.00,West,276,9.0,20.0,40,0.00,,,0.18,638.000000,,2013-04-20 17:12:00,
2013-04-20 17:33:00,51.0,25.0,-100.00,West,273,10.0,19.0,36,0.00,,,0.16,590.000000,,2013-04-20 17:33:00,
2013-04-20 17:42:00,51.0,25.0,-100.00,West,273,10.0,19.0,36,0.00,,,0.16,590.000000,,2013-04-20 17:42:00,
2013-04-20 17:52:00,51.0,25.0,-100.00,West,273,10.0,19.0,36,0.00,,,0.16,590.000000,,2013-04-20 17:52:00,
2013-04-20 18:02:00,51.0,25.0,-100.00,West,273,10.0,19.0,36,0.00,,,0.16,590.000000,,2013-04-20 18:02:00,
2013-04-20 18:13:00,51.0,25.0,-100.00,West,273,10.0,19.0,36,0.00,,,0.16,590.000000,,2013-04-20 18:13:00,
2013-04-20 18:42:00,52.0,22.0,-100.00,West,277,9.0,22.0,31,0.00,,,0.06,821.000000,,2013-04-20 18:42:00,
2013-04-20 18:53:00,52.0,22.0,-100.00,West,277,9.0,22.0,31,0.00,,,0.06,821.000000,,2013-04-20 18:53:00,
2013-04-20 19:02:00,52.0,22.0,-100.00,West,277,9.0,22.0,31,0.00,,,0.06,821.000000,,2013-04-20 19:02:00,
2013-04-20 19:11:00,52.0,22.0,-100.00,West,277,9.0,22.0,31,0.00,,,0.06,821.000000,,2013-04-20 19:11:00,
2013-04-20 19:42:00,54.0,23.0,-100.00,WNW,287,10.0,24.0,30,0.00,,,0.02,690.000000,,2013-04-20 19:42:00,
2013-04-20 19:52:00,54.0,23.0,-100.00,WNW,287,10.0,24.0,30,0.00,,,0.02,690.000000,,2013-04-20 19:52:00,
2013-04-20 20:02:00,54.0,23.0,-100.00,WNW,287,10.0,24.0,30,0.00,,,0.02,690.000000,,2013-04-20 20:02:00,
2013-04-20 20:12:00,54.0,23.0,-100.00,WNW,287,10.0,24.0,30,0.00,,,0.02,690.000000,,2013-04-20 20:12:00,
2013-04-20 20:42:00,55.0,22.0,-100.00,West,279,7.0,19.0,27,0.00,,,0.00,636.000000,,2013-04-20 20:42:00,
2013-04-20 20:52:00,55.0,22.0,-100.00,West,279,7.0,19.0,27,0.00,,,0.00,636.000000,,2013-04-20 20:52:00,
2013-04-20 21:02:00,55.0,22.0,-100.00,West,279,7.0,19.0,27,0.00,,,0.00,636.000000,,2013-04-20 21:02:00,
2013-04-20 21:12:00,55.0,22.0,-100.00,West,279,7.0,19.0,27,0.00,,,0.00,636.000000,,2013-04-20 21:12:00,
2013-04-20 21:43:00,55.0,21.0,-100.00,NW,314,9.0,19.0,26,0.00,,,0.00,579.000000,,2013-04-20 21:43:00,
2013-04-20 21:53:00,55.0,21.0,-100.00,NW,314,9.0,19.0,26,0.00,,,0.00,579.000000,,2013-04-20 21:53:00,
2013-04-20 22:03:00,55.0,21.0,-100.00,NW,314,9.0,19.0,26,0.00,,,0.00,579.000000,,2013-04-20 22:03:00,
2013-04-20 22:12:00,55.0,21.0,-100.00,NW,314,9.0,19.0,26,0.00,,,0.00,579.000000,,2013-04-20 22:12:00,
2013-04-20 22:42:00,54.0,18.0,-100.00,WNW,302,9.0,19.0,24,0.00,,,0.00,373.000000,,2013-04-20 22:42:00,
2013-04-20 22:53:00,54.0,18.0,-100.00,WNW,302,9.0,19.0,24,0.00,,,0.00,373.000000,,2013-04-20 22:53:00,
2013-04-20 23:02:00,54.0,18.0,-100.00,WNW,302,9.0,19.0,24,0.00,,,0.00,373.000000,,2013-04-20 23:02:00,
2013-04-20 23:12:00,54.0,18.0,-100.00,WNW,302,9.0,19.0,24,0.00,,,0.00,373.000000,,2013-04-20 23:12:00,
2013-04-20 23:42:00,53.0,18.0,-100.00,NNW,334,7.0,16.0,25,0.00,,,0.00,188.000000,,2013-04-20 23:42:00,
2013-04-20 23:53:00,53.0,18.0,-100.00,NNW,334,7.0,16.0,25,0.00,,,0.00,188.000000,,2013-04-20 23:53:00,